sat.trackr.live / text

‹ back to catalog

STARLINK-1888

NORAD 47171 · 2020-088BB

PAYLOAD ACTIVE UNKNOWN

§ Identity

Operator
Country
US
Launch date
2020-11-25
Launch site
AFETR
Launch vehicle
Mass (kg)
RCS (m²)

Purposes: comms

External: N2YO · Heavens-Above · Gunter

§ Orbital elements

Epoch: 2026-09-19T22:29:44.977632Z

Period
88.42 min
Inclination
53.0290°
Eccentricity
0.0008127
Mean motion
16.28571362 rev/d
Perigee alt
191.0 km
Apogee alt
201.7 km
Semi-major
6,574.5 km
B*
9.5960e-4
RAAN
36.8184°
Arg perigee
317.7717°
Mean anomaly
42.2698°
Rev number
32,269

§ Raw data

STARLINK-18881 47171U 20088BB  26262.93732613  .03963587  12074-4  95960-3 0  99912 47171  53.0290  36.8184 0008127 317.7717  42.2698 16.28571362322696

JSON: /api/v1/satellites/47171 · /tle

For live sub-satellite position, see the globe view (requires WebGL).

§ Visibility from observer

Set your observer location to see the next 7 days of passes ≥ 10°. The values pass through the URL so the page stays shareable.

No JS? Fill the form by hand. The geolocation button needs JavaScript.